Time,TemperatureF,DewpointF,PressureIn,WindDirection,WindDirectionDegrees,WindSpeedMPH,WindSpeedGustMPH,Humidity,HourlyPrecipIn,Conditions,Clouds,dailyrainin,SoftwareType,DateUTC
2013-03-25 00:03:00,29.6,27.0,30.06,NNW,331,9.0,15.0,91,0.00,,,0.00,weatherlink.com 1.10,2013-03-25 05:03:00,
2013-03-25 00:18:00,29.5,28.0,30.06,NW,317,7.0,12.0,92,0.00,,,0.00,weatherlink.com 1.10,2013-03-25 05:18:00,
2013-03-25 00:33:00,29.5,27.0,30.06,NNW,334,10.0,14.0,91,0.00,,,0.00,weatherlink.com 1.10,2013-03-25 05:33:00,
2013-03-25 00:48:00,29.4,27.0,30.06,NNW,348,8.0,14.0,91,0.00,,,0.00,weatherlink.com 1.10,2013-03-25 05:48:00,
2013-03-25 01:03:00,29.2,27.0,30.06,NNW,344,7.0,15.0,90,0.00,,,0.00,weatherlink.com 1.10,2013-03-25 06:03:00,
2013-03-25 01:18:00,29.2,27.0,30.06,NNW,344,10.0,14.0,91,0.00,,,0.00,weatherlink.com 1.10,2013-03-25 06:18:00,
2013-03-25 01:34:00,29.1,27.0,30.07,NNW,335,9.0,11.0,91,0.00,,,0.00,weatherlink.com 1.10,2013-03-25 06:34:00,
2013-03-25 01:49:00,29.1,27.0,30.06,NW,323,9.0,12.0,92,0.00,,,0.00,weatherlink.com 1.10,2013-03-25 06:49:00,
2013-03-25 02:04:00,29.1,27.0,30.06,WNW,298,7.0,12.0,92,0.00,,,0.00,weatherlink.com 1.10,2013-03-25 07:04:00,
2013-03-25 02:19:00,29.1,27.0,30.06,NW,319,9.0,11.0,92,0.00,,,0.00,weatherlink.com 1.10,2013-03-25 07:19:00,
2013-03-25 02:34:00,29.2,27.0,30.06,NW,310,7.0,12.0,92,0.00,,,0.00,weatherlink.com 1.10,2013-03-25 07:34:00,
2013-03-25 02:49:00,29.3,27.0,30.07,NW,314,7.0,12.0,92,0.00,,,0.00,weatherlink.com 1.10,2013-03-25 07:49:00,
2013-03-25 03:04:00,29.3,27.0,30.07,NW,311,13.0,13.0,92,0.00,,,0.00,weatherlink.com 1.10,2013-03-25 08:04:00,
2013-03-25 03:19:00,29.3,27.0,30.06,NW,325,7.0,14.0,92,0.00,,,0.00,weatherlink.com 1.10,2013-03-25 08:19:00,
2013-03-25 03:34:00,29.4,27.0,30.06,NNW,331,6.0,12.0,92,0.00,,,0.00,weatherlink.com 1.10,2013-03-25 08:34:00,
2013-03-25 03:49:00,29.5,28.0,30.06,NW,314,8.0,11.0,92,0.00,,,0.00,weatherlink.com 1.10,2013-03-25 08:49:00,
2013-03-25 04:04:00,29.4,27.0,30.06,NW,322,8.0,13.0,92,0.00,,,0.00,weatherlink.com 1.10,2013-03-25 09:04:00,
2013-03-25 04:19:00,29.4,27.0,30.06,NNW,334,8.0,12.0,92,0.00,,,0.00,weatherlink.com 1.10,2013-03-25 09:19:00,
2013-03-25 04:34:00,29.3,27.0,30.06,NW,317,9.0,14.0,92,0.00,,,0.00,weatherlink.com 1.10,2013-03-25 09:34:00,
2013-03-25 04:49:00,29.3,27.0,30.07,NNW,336,9.0,14.0,91,0.00,,,0.00,weatherlink.com 1.10,2013-03-25 09:49:00,
2013-03-25 05:04:00,29.2,27.0,30.07,NW,319,9.0,11.0,91,0.00,,,0.00,weatherlink.com 1.10,2013-03-25 10:04:00,
2013-03-25 05:19:00,29.0,27.0,30.07,NW,309,9.0,12.0,91,0.00,,,0.00,weatherlink.com 1.10,2013-03-25 10:19:00,
2013-03-25 05:34:00,29.0,27.0,30.07,NW,319,9.0,14.0,91,0.00,,,0.00,weatherlink.com 1.10,2013-03-25 10:34:00,
2013-03-25 05:49:00,29.0,27.0,30.08,NW,313,8.0,13.0,91,0.00,,,0.00,weatherlink.com 1.10,2013-03-25 10:49:00,
2013-03-25 06:04:00,28.5,26.0,30.08,NW,305,12.0,14.0,91,0.00,,,0.00,weatherlink.com 1.10,2013-03-25 11:04:00,
2013-03-25 06:19:00,28.2,26.0,30.09,NW,319,12.0,17.0,91,0.00,,,0.00,weatherlink.com 1.10,2013-03-25 11:19:00,
2013-03-25 06:34:00,28.1,26.0,30.09,NW,311,10.0,18.0,90,0.00,,,0.00,weatherlink.com 1.10,2013-03-25 11:34:00,
2013-03-25 06:49:00,28.0,26.0,30.10,NW,312,16.0,17.0,90,0.00,,,0.00,weatherlink.com 1.10,2013-03-25 11:49:00,
2013-03-25 07:04:00,28.1,26.0,30.10,NW,325,14.0,17.0,90,0.00,,,0.00,weatherlink.com 1.10,2013-03-25 12:04:00,
2013-03-25 07:19:00,28.2,25.0,30.11,NW,314,15.0,19.0,89,0.00,,,0.00,weatherlink.com 1.10,2013-03-25 12:19:00,
2013-03-25 07:34:00,28.1,25.0,30.11,WNW,298,12.0,18.0,89,0.00,,,0.00,weatherlink.com 1.10,2013-03-25 12:34:00,
2013-03-25 07:49:00,28.2,25.0,30.12,NW,313,11.0,16.0,89,0.00,,,0.00,weatherlink.com 1.10,2013-03-25 12:49:00,
2013-03-25 08:04:00,28.3,25.0,30.12,NW,309,10.0,16.0,88,0.00,,,0.00,weatherlink.com 1.10,2013-03-25 13:04:00,
2013-03-25 08:19:00,28.3,25.0,30.13,NW,311,12.0,19.0,88,0.00,,,0.00,weatherlink.com 1.10,2013-03-25 13:19:00,
2013-03-25 08:34:00,28.5,25.0,30.14,NW,314,10.0,16.0,87,0.00,,,0.00,weatherlink.com 1.10,2013-03-25 13:34:00,
2013-03-25 08:49:00,28.9,25.0,30.14,NW,317,11.0,16.0,86,0.00,,,0.00,weatherlink.com 1.10,2013-03-25 13:49:00,
2013-03-25 09:04:00,29.3,25.0,30.15,NNW,334,11.0,20.0,83,0.00,,,0.00,weatherlink.com 1.10,2013-03-25 14:04:00,
2013-03-25 09:19:00,29.7,24.0,30.15,NNW,340,14.0,21.0,80,0.00,,,0.00,weatherlink.com 1.10,2013-03-25 14:19:00,
2013-03-25 09:34:00,29.8,23.0,30.16,NNW,333,15.0,23.0,77,0.00,,,0.00,weatherlink.com 1.10,2013-03-25 14:34:00,
2013-03-25 09:49:00,30.0,24.0,30.17,NNW,332,11.0,21.0,78,0.00,,,0.00,weatherlink.com 1.10,2013-03-25 14:49:00,
2013-03-25 10:04:00,30.3,24.0,30.17,NNW,346,19.0,21.0,77,0.00,,,0.00,weatherlink.com 1.10,2013-03-25 15:04:00,
2013-03-25 10:19:00,30.7,24.0,30.18,North,349,15.0,19.0,75,0.00,,,0.00,weatherlink.com 1.10,2013-03-25 15:19:00,
2013-03-25 10:34:00,31.0,24.0,30.18,North,360,14.0,19.0,75,0.00,,,0.00,weatherlink.com 1.10,2013-03-25 15:34:00,
2013-03-25 10:49:00,31.3,24.0,30.18,NNW,343,11.0,18.0,75,0.00,,,0.00,weatherlink.com 1.10,2013-03-25 15:49:00,
2013-03-25 11:04:00,31.9,24.0,30.19,North,355,15.0,20.0,72,0.00,,,0.00,weatherlink.com 1.10,2013-03-25 16:04:00,
2013-03-25 11:20:00,32.6,25.0,30.20,NW,324,12.0,18.0,73,0.00,,,0.00,weatherlink.com 1.10,2013-03-25 16:20:00,
2013-03-25 11:35:00,32.8,24.0,30.20,NNW,338,15.0,20.0,71,0.00,,,0.00,weatherlink.com 1.10,2013-03-25 16:35:00,
2013-03-25 11:50:00,33.4,25.0,30.20,North,5,13.0,20.0,71,0.00,,,0.00,weatherlink.com 1.10,2013-03-25 16:50:00,
2013-03-25 12:05:00,33.9,25.0,30.20,North,355,10.0,20.0,70,0.00,,,0.00,weatherlink.com 1.10,2013-03-25 17:05:00,
2013-03-25 12:20:00,34.2,25.0,30.20,North,355,12.0,21.0,68,0.00,,,0.00,weatherlink.com 1.10,2013-03-25 17:20:00,
2013-03-25 12:35:00,34.4,24.0,30.20,NNW,346,13.0,20.0,66,0.00,,,0.00,weatherlink.com 1.10,2013-03-25 17:35:00,
2013-03-25 12:50:00,34.6,24.0,30.20,NNW,344,9.0,23.0,65,0.00,,,0.00,weatherlink.com 1.10,2013-03-25 17:50:00,
2013-03-25 13:05:00,34.6,25.0,30.20,North,355,17.0,23.0,67,0.00,,,0.00,weatherlink.com 1.10,2013-03-25 18:05:00,
2013-03-25 13:20:00,35.0,24.0,30.20,NNW,344,16.0,21.0,65,0.00,,,0.00,weatherlink.com 1.10,2013-03-25 18:20:00,
2013-03-25 13:35:00,35.5,24.0,30.20,NNW,342,12.0,20.0,64,0.00,,,0.00,weatherlink.com 1.10,2013-03-25 18:35:00,
2013-03-25 13:50:00,35.3,24.0,30.21,NNW,346,12.0,19.0,64,0.00,,,0.00,weatherlink.com 1.10,2013-03-25 18:50:00,
2013-03-25 14:05:00,35.6,26.0,30.21,NNW,339,13.0,19.0,69,0.00,,,0.00,weatherlink.com 1.10,2013-03-25 19:05:00,
2013-03-25 14:20:00,35.7,25.0,30.21,North,355,15.0,19.0,66,0.00,,,0.00,weatherlink.com 1.10,2013-03-25 19:20:00,
2013-03-25 14:35:00,35.8,25.0,30.21,NNW,341,11.0,18.0,64,0.00,,,0.00,weatherlink.com 1.10,2013-03-25 19:35:00,
2013-03-25 14:50:00,35.8,25.0,30.21,North,355,10.0,19.0,65,0.00,,,0.00,weatherlink.com 1.10,2013-03-25 19:50:00,
2013-03-25 15:05:00,35.3,27.0,30.21,NW,315,11.0,18.0,73,0.00,,,0.00,weatherlink.com 1.10,2013-03-25 20:05:00,
2013-03-25 15:20:00,35.2,27.0,30.22,NW,309,15.0,18.0,73,0.00,,,0.00,weatherlink.com 1.10,2013-03-25 20:20:00,
2013-03-25 15:35:00,35.4,29.0,30.21,NW,317,17.0,19.0,76,0.00,,,0.00,weatherlink.com 1.10,2013-03-25 20:35:00,
2013-03-25 15:50:00,35.3,28.0,30.22,WNW,298,16.0,19.0,75,0.00,,,0.00,weatherlink.com 1.10,2013-03-25 20:50:00,
2013-03-25 16:05:00,35.5,28.0,30.22,NW,324,15.0,19.0,73,0.00,,,0.00,weatherlink.com 1.10,2013-03-25 21:05:00,
2013-03-25 16:20:00,35.5,28.0,30.23,NW,316,13.0,20.0,73,0.00,,,0.00,weatherlink.com 1.10,2013-03-25 21:20:00,
2013-03-25 16:35:00,35.7,27.0,30.23,NW,314,11.0,18.0,71,0.00,,,0.00,weatherlink.com 1.10,2013-03-25 21:35:00,
2013-03-25 16:50:00,35.2,27.0,30.23,NW,306,13.0,18.0,72,0.00,,,0.00,weatherlink.com 1.10,2013-03-25 21:50:00,
2013-03-25 17:05:00,35.7,27.0,30.23,NW,323,8.0,16.0,71,0.00,,,0.00,weatherlink.com 1.10,2013-03-25 22:05:00,
2013-03-25 17:20:00,35.5,28.0,30.24,NW,319,12.0,18.0,73,0.00,,,0.00,weatherlink.com 1.10,2013-03-25 22:20:00,
2013-03-25 17:35:00,35.8,27.0,30.24,NW,311,11.0,19.0,71,0.00,,,0.00,weatherlink.com 1.10,2013-03-25 22:35:00,
2013-03-25 17:50:00,36.0,26.0,30.25,WNW,300,13.0,19.0,68,0.00,,,0.00,weatherlink.com 1.10,2013-03-25 22:50:00,
2013-03-25 18:05:00,35.6,26.0,30.25,WNW,296,17.0,18.0,69,0.00,,,0.00,weatherlink.com 1.10,2013-03-25 23:05:00,
2013-03-25 18:20:00,35.2,26.0,30.25,NNW,333,10.0,15.0,68,0.00,,,0.00,weatherlink.com 1.10,2013-03-25 23:20:00,
2013-03-25 18:35:00,34.6,25.0,30.26,NW,319,11.0,17.0,68,0.00,,,0.00,weatherlink.com 1.10,2013-03-25 23:35:00,
2013-03-25 18:50:00,34.2,25.0,30.27,NW,318,7.0,13.0,70,0.00,,,0.00,weatherlink.com 1.10,2013-03-25 23:50:00,
2013-03-25 19:05:00,33.9,26.0,30.28,NNW,341,9.0,12.0,72,0.00,,,0.00,weatherlink.com 1.10,2013-03-26 00:05:00,
2013-03-25 19:20:00,33.7,24.0,30.29,NNW,344,11.0,14.0,68,0.00,,,0.00,weatherlink.com 1.10,2013-03-26 00:20:00,
2013-03-25 20:20:00,32.6,26.0,30.30,NW,312,4.0,7.0,75,0.00,,,0.00,weatherlink.com 1.10,2013-03-26 01:20:00,
2013-03-25 20:36:00,33.0,25.0,30.30,NW,317,7.0,10.0,73,0.00,,,0.00,weatherlink.com 1.10,2013-03-26 01:36:00,
2013-03-25 20:51:00,33.1,26.0,30.30,NW,315,8.0,11.0,74,0.00,,,0.00,weatherlink.com 1.10,2013-03-26 01:51:00,
2013-03-25 21:06:00,33.1,25.0,30.31,NW,316,6.0,13.0,73,0.00,,,0.00,weatherlink.com 1.10,2013-03-26 02:06:00,
2013-03-25 21:21:00,32.7,25.0,30.31,NW,324,8.0,10.0,74,0.00,,,0.00,weatherlink.com 1.10,2013-03-26 02:21:00,
2013-03-25 21:36:00,32.3,25.0,30.31,NW,320,7.0,11.0,74,0.00,,,0.00,weatherlink.com 1.10,2013-03-26 02:36:00,
2013-03-25 21:51:00,31.9,25.0,30.31,NW,317,6.0,10.0,76,0.00,,,0.00,weatherlink.com 1.10,2013-03-26 02:51:00,
2013-03-25 22:06:00,31.6,25.0,30.32,NW,324,5.0,8.0,76,0.00,,,0.00,weatherlink.com 1.10,2013-03-26 03:06:00,
2013-03-25 22:21:00,31.9,25.0,30.32,NW,323,5.0,10.0,75,0.00,,,0.00,weatherlink.com 1.10,2013-03-26 03:21:00,
2013-03-25 22:36:00,31.4,25.0,30.32,NW,315,4.0,9.0,76,0.00,,,0.00,weatherlink.com 1.10,2013-03-26 03:36:00,
2013-03-25 23:06:00,31.0,25.0,30.33,NW,315,4.0,9.0,77,0.00,,,0.00,weatherlink.com 1.10,2013-03-26 04:06:00,
2013-03-25 23:21:00,30.6,25.0,30.33,NW,321,8.0,13.0,78,0.00,,,0.00,weatherlink.com 1.10,2013-03-26 04:21:00,